Flag for Canada Weather past 2 weeks in Caledon, Ontario, Canada

Now
32 °F

Overcast.


Feels Like: 23 °F
Forecast: 29 / 40 °F
Wind: 12 mph from Southeast

Location: Borden

Current Time: Dec 22, 2014 at 7:20:10 PM

Latest Report: Dec 22, 2014 at 6:00 PM


Visibility: 9 mi

Pressure: 30.11 "Hg

Humidity: 80%

Dew point: 27 °F

Location of CaledonLocation

Historic Weather in Caledon — Graph

°F

Caledon temperature yesterday

Maximum temperature yesterday: 32 °F (at 11:00 AM)
Minimum temperature yesterday: 21 °F (at 5:00 AM)
Average temperature yesterday: 28 °F

Past Weeks' High & Low Weather Summary

 TemperatureHumidityPressure
High37 °F (Dec 9, 1:00 PM)100% (Dec 9, 10:00 AM)30.72 "Hg (Dec 9, 10:00 AM)
Low12 °F (Dec 20, 8:00 AM)52% (Dec 8, 1:00 PM)29.71 "Hg (Dec 16, 1:55 PM)
Average30 °F90%30.08 "Hg
* Reported Dec 7 6:00 PM — Dec 22 6:00 PM, Caledon, Weather by CustomWeather, © 2014

Note: Actual official high and low records may vary slightly from our data, if they occured in-between our weather recording intervals... More about our weather records

Advertising

Caledon weather history for previous 24 hours

 ConditionsComfort  
Time TempWeatherWind HumidityBarometerVisibility
6:00 PM
Dec 22
32 °FOvercast.12 mph80%30.11 "Hg9 mi
5:00 PM32 °FOvercast.12 mph80%30.11 "Hg9 mi
4:00 PM32 °FOvercast.10 mph80%30.11 "Hg9 mi
3:00 PM32 °FOvercast.12 mph80%30.11 "Hg9 mi
2:00 PM32 °FOvercast.10 mph80%30.13 "Hg9 mi
1:00 PM32 °FOvercast.10 mph75%30.14 "Hg9 mi
12:00 PM32 °FOvercast.10 mph80%30.16 "Hg9 mi
11:00 AM30 °FOvercast.10 mph80%30.20 "Hg9 mi
10:00 AM30 °FOvercast.7 mph86%30.20 "Hg9 mi
9:00 AM30 °FOvercast.7 mph80%30.22 "Hg9 mi
8:00 AM30 °FOvercast.5 mph80%30.23 "Hg9 mi
7:00 AM30 °FOvercast.3 mph75%30.22 "Hg9 mi
6:00 AM30 °FOvercast.7 mph75%30.23 "Hg9 mi
5:00 AM28 °FOvercast.5 mph80%30.23 "Hg9 mi
4:00 AM27 °FOvercast.No wind80%30.24 "Hg9 mi
3:00 AM25 °FOvercast.2 mph86%30.27 "Hg9 mi
2:00 AM25 °FOvercast.6 mph80%30.27 "Hg8 mi
1:00 AM27 °FOvercast.5 mph80%30.28 "Hg8 mi
12:00 AM27 °FOvercast.5 mph80%30.29 "Hg9 mi
11:00 PM
Dec 21
28 °FOvercast.3 mph80%30.28 "Hg9 mi
10:00 PM28 °FOvercast.3 mph80%30.29 "Hg9 mi
9:00 PM28 °FOvercast.3 mph80%30.31 "Hg9 mi
8:00 PM30 °FOvercast.No wind75%30.31 "Hg9 mi
7:00 PM28 °FOvercast.No wind86%30.31 "Hg9 mi
Weather by CustomWeather, © 2014

See weather overviewHow to use our weather pages